Content
SEND FEEDBACK

Daily
Averages
Monthly
Summary
Netherlands

MAASTRICHT, NETHERLANDS


Home > Europe > Netherlands
Elevation: 380 feet     Latitude: 50 55N     Longitude: 005 47E

WEATHER
 
SELECT A DAY
Number of Records: 301,353;   Date Range: 7/1/96 - 7/23/14
 
SHARE

PRINT THIS DATA

[ ← Previous Day ]
WEATHER ALMANAC - JUNE 24, 2013
[ Next Day → ]
[ °C ]   °F
We're sorry. There is no daily almanac available for Maastricht, Netherlands on June 24, 2013.
WEATHER BY HOUR - JUNE 24, 2013
[ °C ]   °F
Local TimeTemperatureDewpointHumidityBarometerVisibilityWind DirectionWind SpeedGust SpeedPrecipitationEventsConditions
12:55 AM55.4 °F50.0 °F82 %29.98 in6.2 miSW (230°)15.0 mphOvercast
1:25 AM55.4 °F50.0 °F82 %29.98 in6.2 miSW (230°)12.7 mphOvercast
1:55 AM55.4 °F50.0 °F82 %29.98 in6.2 miSW (220°)11.5 mphOvercast
2:00 AM55.0 °F51.0 °F82 %30.01 in11.0 miSW (220°)13.4 mphPartly Cloudy
2:25 AM55.4 °F51.8 °F88 %29.98 in6.2 miSW (230°)11.5 mphOvercast
2:55 AM55.4 °F51.8 °F88 %30.01 in6.2 miSW (230°)11.5 mphOvercast
3:25 AM55.4 °F51.8 °F88 %30.01 in6.2 miSW (230°)11.5 mphOvercast
3:55 AM55.4 °F51.8 °F88 %30.01 in3.1 miSW (230°)12.7 mphRainLight Rain
4:25 AM53.6 °F53.6 °F100 %30.01 in3.1 miSW (230°)10.4 mphRainLight Rain Showers
4:55 AM53.6 °F53.6 °F100 %30.01 in6.2 miSW (230°)11.5 mphOvercast
5:00 AM54.0 °F53.0 °F93 %30.03 in7.0 miSW (230°)11.2 mphRainRain
5:25 AM53.6 °F51.8 °F94 %30.01 in6.2 miSW (230°)10.4 mphOvercast
5:55 AM53.6 °F51.8 °F94 %30.04 in5.6 miWSW (240°)9.2 mphOvercast
6:25 AM53.6 °F51.8 °F94 %30.04 in6.2 miWSW (240°)8.1 mphOvercast
6:55 AM53.6 °F51.8 °F94 %30.04 in6.2 miSW (220°)9.2 mphOvercast
7:25 AM53.6 °F53.6 °F100 %30.04 in5.0 miSW (220°)9.2 mphRainLight Rain
7:55 AM55.4 °F51.8 °F88 %30.04 in6.2 miSW (230°)9.2 mphOvercast
8:00 AM55.0 °F53.0 °F88 %30.08 in7.0 miSW (230°)8.9 mphRainRain
8:25 AM55.4 °F53.6 °F94 %30.06 in6.2 miSW (230°)10.4 mphOvercast
8:55 AM55.4 °F51.8 °F88 %30.06 in6.2 miWSW (240°)10.4 mphOvercast
9:25 AM55.4 °F51.8 °F88 %30.06 in6.2 miWSW (240°)11.5 mphOvercast
9:55 AM57.2 °F50.0 °F77 %30.06 in6.2 miWSW (240°)11.5 mphMostly Cloudy
10:25 AM57.2 °F50.0 °F77 %30.09 in6.2 miWSW (250°)12.7 mphMostly Cloudy
10:55 AM55.4 °F48.2 °F77 %30.09 in6.2 miWest (260°)11.5 mphMostly Cloudy
11:00 AM55.0 °F48.0 °F69 %30.12 in9.0 miWest (260°)11.2 mphOvercast
11:25 AM55.4 °F50.0 °F82 %30.09 in6.2 miWSW (250°)10.4 mphMostly Cloudy
11:55 AM57.2 °F50.0 °F77 %30.12 in6.2 miWSW (250°)10.4 mphOvercast
12:25 PM57.2 °F50.0 °F77 %30.12 in6.2 miWest (260°)8.1 mphMostly Cloudy
12:55 PM57.2 °F50.0 °F77 %30.12 in6.2 miWest (260°)6.9 mphOvercast
1:25 PM57.2 °F48.2 °F72 %30.12 in6.2 miWSW (250°)8.1 mphOvercast
1:55 PM57.2 °F50.0 °F77 %30.15 in6.2 miWSW (240°)9.2 mphOvercast
2:00 PM57.0 °F49.0 °F67 %30.17 in15.0 miWSW (250°)11.2 mphPartly Cloudy
2:25 PM57.2 °F48.2 °F72 %30.15 in6.2 miWest (270°)9.2 mphOvercast
2:55 PM57.2 °F48.2 °F72 %30.15 in6.2 miWest (260°)6.9 mphOvercast
3:25 PM57.2 °F50.0 °F77 %30.15 in6.2 miWSW (250°)6.9 mphOvercast
3:55 PM57.2 °F48.2 °F72 %30.15 in6.2 miWSW (250°)8.1 mphOvercast
4:25 PM57.2 °F48.2 °F72 %30.18 in6.2 miWest (260°)8.1 mphOvercast
4:55 PM57.2 °F48.2 °F72 %30.18 in6.2 miWest (270°)8.1 mphOvercast
5:00 PM57.0 °F49.0 °F66 %30.20 in19.0 miWest (270°)6.7 mphOvercast
5:25 PM57.2 °F48.2 °F72 %30.18 in6.2 miWest (260°)4.6 mphOvercast
5:55 PM57.2 °F50.0 °F77 %30.18 in6.2 miWest (270°)5.8 mphOvercast
6:25 PM55.4 °F50.0 °F82 %30.18 in3.7 miWNW (300°)10.4 mphRainLight Rain
6:55 PM55.4 °F50.0 °F82 %30.18 in6.2 miWest (260°)4.6 mphDrizzle
7:25 PM53.6 °F51.8 °F94 %30.21 in3.7 miWNW (290°)6.9 mphRainLight Rain
7:55 PM51.8 °F50.0 °F94 %30.21 in3.7 miWNW (290°)4.6 mphRainLight Rain
8:00 PM53.0 °F51.0 °F89 %30.24 in4.0 miWest (270°)4.5 mphRainRain
8:25 PM51.8 °F51.8 °F100 %30.21 in5.6 miWest (260°)3.5 mphRainDrizzle
8:55 PM51.8 °F51.8 °F100 %30.21 in5.0 miWest (260°)3.5 mphLight Drizzle
9:25 PM53.6 °F51.8 °F94 %30.24 in4.3 miWest (260°)3.5 mphDrizzle
9:55 PM51.8 °F51.8 °F100 %30.24 in5.0 miWest (260°)4.6 mphRainLight Rain
10:25 PM51.8 °F51.8 °F100 %30.24 in4.3 miWest (260°)3.5 mphHeavy Drizzle
10:55 PM51.8 °F51.8 °F100 %30.24 in3.7 miWest (270°)4.6 mphDrizzle
11:00 PM52.0 °F52.0 °F98 %30.28 in4.0 miWest (270°)4.5 mphRainLight Rain
11:25 PM51.8 °F51.8 °F100 %30.24 in5.0 miWest (270°)3.5 mphRainLight Rain
11:55 PM51.8 °F51.8 °F100 %30.24 inWest (270°)4.6 mphMostly Cloudy
Hourly data recorded from EHBK, located miles away from Maastricht, Netherlands







STORIES FROM OUR PARTNERS